Wind_Speed
20 19 18 17 16 16 16 14 12 11 9 8 7 8 10 11 10 10 10 8 8 8 8 9 10 9 9 10 10 12 12 11 10 10 10 11 12 13 13 13 13 13
21 20 18 18 17 17 16 14 12 10 7 7 7 6 8 10 10 10 9 8 7 8 8 8 9 10 11 11 11 12 12 12 13 13 13 14 15 15 16 16 16 14
22 20 18 18 17 17 16 14 12 9 7 7 6 4 5 8 9 8 8 6 7 8 9 8 9 11 12 11 11 11 11 13 15 16 16 17 16 16 17 17 16 13
22 19 18 18 16 16 15 13 12 10 8 7 6 4 4 6 7 8 8 6 8 10 11 9 9 11 12 12 11 11 13 15 17 18 18 17 16 15 16 16 15 13
22 20 19 17 16 15 14 13 12 11 9 8 7 6 5 6 8 9 8 8 10 13 12 10 10 11 13 13 12 13 15 16 18 19 18 18 16 15 15 15 15 14
23 21 20 18 17 16 14 13 11 10 9 9 8 6 6 7 8 8 9 10 13 14 13 12 11 11 13 13 14 14 15 18 19 19 18 18 17 16 16 15 16 16
24 22 21 19 18 16 14 12 11 9 9 9 8 7 7 7 7 8 9 11 14 15 15 14 12 11 12 13 14 15 15 18 19 19 19 18 17 16 17 17 18 18
24 23 21 19 17 15 14 12 11 9 9 9 9 8 7 7 8 8 9 12 15 16 16 15 14 12 13 14 14 15 15 17 19 20 19 18 17 17 17 18 19 20
23 22 20 19 17 14 13 12 10 10 9 9 8 8 8 8 8 9 10 12 15 17 16 15 14 13 14 15 15 15 16 18 19 19 19 18 18 18 18 18 19 21
22 21 19 19 17 15 14 12 11 11 10 9 8 8 9 9 8 9 10 11 13 16 17 15 14 14 15 16 16 16 17 20 21 19 18 19 19 18 18 18 18 20
22 21 20 19 18 16 15 13 13 13 11 9 9 10 10 10 11 11 10 9 9 11 15 15 14 14 15 16 17 18 19 21 21 20 19 19 19 18 17 17 17 18
19 19 19 18 18 17 16 15 14 13 12 10 9 11 12 12 13 12 10 8 5 6 12 15 15 15 17 18 18 19 20 21 21 20 20 20 20 18 17 17 17 17
18 18 17 16 16 16 15 15 15 13 12 12 12 13 13 13 13 13 11 9 7 6 10 14 14 15 18 19 19 19 20 21 22 21 20 20 20 19 18 17 17 17
17 18 18 17 15 13 12 13 13 13 13 13 14 15 14 12 11 13 13 11 9 8 8 10 11 13 18 20 19 19 19 19 20 21 20 19 19 19 19 19 19 18
18 19 19 18 15 13 12 12 13 14 14 14 14 13 13 12 10 11 13 13 12 11 10 9 8 9 14 19 19 19 19 19 20 20 21 20 20 20 20 20 20 19
20 21 20 17 15 15 15 14 13 13 13 13 13 12 11 11 10 11 14 15 13 13 13 13 11 9 11 15 17 19 20 20 21 21 21 22 22 22 22 21 20 19
17 18 18 17 16 17 17 16 16 15 15 14 13 12 12 11 10 11 14 15 14 14 15 15 15 13 12 12 14 16 18 20 21 22 22 23 23 23 22 21 20 19
15 15 16 17 18 18 18 18 16 15 15 16 13 11 13 13 12 12 14 15 15 15 16 17 16 16 15 15 14 14 15 16 18 20 23 24 24 24 24 23 22 22
15 14 14 14 14 15 15 15 14 12 14 16 15 11 12 14 15 15 15 16 16 16 17 18 18 17 18 18 18 17 16 16 17 19 21 22 24 25 26 27 26 25
17 16 15 13 11 10 10 8 8 8 9 13 15 15 15 16 18 19 18 18 18 18 18 19 19 19 19 20 21 21 21 21 21 21 22 22 23 24 25 27 28 28
16 15 14 13 11 10 9 9 8 7 7 8 11 14 17 17 18 19 20 21 21 21 21 21 21 21 21 21 21 22 25 26 25 25 25 25 25 25 25 25 26 27
14 14 13 12 11 10 9 10 10 10 10 10 10 11 13 14 14 14 15 16 17 19 22 24 24 24 24 24 23 23 25 27 28 29 29 29 29 28 28 27 27 27
12 12 12 10 10 9 8 9 10 10 11 11 11 11 11 12 12 11 10 9 8 9 12 16 18 19 21 23 25 26 26 26 27 28 30 31 32 31 31 31 30 30
9 10 8 5 6 7 8 8 9 9 10 10 10 10 11 11 12 12 11 10 9 8 9 10 12 12 14 17 20 23 25 26 25 26 28 30 32 33 33 33 34 34
5 8 8 7 8 8 9 10 10 10 11 11 11 11 11 12 12 13 12 12 11 11 12 13 14 14 13 14 15 17 20 22 24 26 27 28 30 32 34 35 37 38
4 5 8 10 10 11 12 12 14 14 15 16 16 16 17 16 17 17 17 16 16 16 16 16 17 17 17 16 16 16 17 20 22 25 27 28 29 31 33 35 38 39
Wind_Direction
196 191 185 181 182 182 180 178 177 180 185 181 189 209 214 215 215 205 198 192 186 191 198 204 209 209 197 179 174 175 175 176 169 161 158 156 156 157 155 152 151 155
195 189 183 180 177 176 175 171 169 171 173 174 177 191 209 214 211 204 198 190 191 194 192 195 198 194 188 179 176 176 173 171 166 162 160 160 159 155 149 144 141 143
191 185 183 180 174 171 170 168 169 174 179 180 176 172 194 203 205 206 203 195 195 194 191 189 179 175 178 177 175 173 170 168 165 163 163 163 162 158 151 146 141 137
188 185 186 182 175 172 171 171 175 183 192 192 185 183 188 196 206 212 212 208 198 190 188 184 171 164 167 169 169 168 166 166 165 164 165 164 163 161 156 154 151 144
189 188 187 182 179 178 178 179 182 188 200 203 197 199 200 201 210 215 217 211 197 189 186 184 174 166 167 167 166 168 166 165 166 168 169 167 165 165 164 165 167 163
189 186 186 185 185 186 184 184 187 192 204 208 207 208 202 196 199 205 209 202 192 187 185 187 184 173 172 172 169 169 168 169 171 174 176 174 173 175 175 178 179 176
187 185 186 188 191 191 188 186 189 196 206 211 208 200 187 182 185 193 201 199 194 191 190 195 197 187 180 178 174 170 169 174 177 180 184 183 181 183 184 185 186 182
186 185 186 192 194 193 191 189 189 197 208 207 197 186 177 180 186 188 194 196 195 195 198 202 205 197 188 187 184 175 171 175 179 183 187 185 180 178 178 181 184 183
186 184 187 193 194 193 192 189 190 197 202 196 187 182 180 182 186 183 182 187 193 197 200 203 204 199 193 193 192 183 174 173 177 180 181 176 170 166 165 169 175 180
185 186 189 191 191 192 189 185 186 189 188 185 187 188 183 176 173 172 169 172 183 192 199 203 203 198 193 191 190 186 177 171 172 175 173 169 167 163 159 161 166 174
183 186 189 191 191 189 184 181 182 182 180 182 186 187 180 168 163 166 164 160 167 185 193 196 194 190 185 181 179 177 173 169 170 173 172 170 169 166 161 161 164 170
188 189 191 192 193 187 181 179 179 180 180 181 184 184 178 169 165 171 175 171 168 181 183 182 182 180 176 173 172 171 170 170 173 176 177 176 175 174 172 169 170 174
188 186 182 182 186 186 183 181 181 182 182 179 178 175 172 169 169 178 187 189 191 190 180 181 185 182 179 178 178 178 178 177 179 183 185 184 184 183 182 182 183 186
182 177 172 172 177 184 188 186 184 184 178 171 170 170 173 177 176 181 190 192 196 199 188 187 194 189 187 190 191 188 187 189 190 193 196 196 194 192 193 194 196 198
178 174 174 175 173 173 175 173 174 177 173 167 168 173 179 184 183 187 193 195 200 207 205 202 207 201 195 199 202 199 196 199 202 205 208 208 207 205 206 207 209 211
178 175 175 172 164 161 163 162 164 175 180 178 180 182 184 188 192 192 193 196 203 210 213 215 219 221 211 207 209 211 208 208 210 212 215 216 217 218 219 220 220 221
172 172 170 163 159 163 168 171 173 180 190 197 199 196 191 193 200 202 199 202 207 212 217 221 225 231 233 224 218 218 219 219 218 217 218 221 224 227 231 233 232 231
160 165 168 167 169 175 179 182 184 186 191 197 203 206 201 196 200 204 204 207 212 215 220 225 230 235 240 242 239 234 233 233 229 225 224 226 229 231 235 238 240 240
147 153 161 167 171 177 182 186 191 195 196 196 196 201 202 200 203 207 208 211 216 219 222 227 233 239 241 245 247 248 247 247 245 240 236 235 236 236 236 237 240 242
137 138 140 143 145 152 158 166 174 182 194 200 203 206 205 201 203 209 212 215 219 222 224 226 229 235 241 244 247 249 249 250 251 250 248 247 246 244 243 243 243 244
128 127 126 129 133 138 143 145 148 152 165 188 207 217 218 214 214 220 225 225 224 227 229 229 228 230 236 241 244 246 246 247 250 251 252 252 252 252 251 249 248 248
129 130 132 136 142 147 153 157 161 167 173 182 193 205 214 217 219 227 236 237 235 234 235 235 234 232 234 239 244 246 245 245 247 249 251 252 252 253 254 253 250 249
139 140 139 141 149 156 160 162 166 175 184 189 193 195 200 205 208 211 220 228 234 242 246 246 243 242 243 245 247 249 249 248 247 247 248 250 251 253 254 253 251 250
158 158 159 170 181 181 183 184 186 192 198 200 202 204 205 208 210 212 215 219 224 234 246 251 249 247 252 254 253 254 256 257 256 253 251 249 248 249 250 250 250 249
182 189 210 237 242 234 231 228 227 228 227 226 228 230 230 229 227 226 224 225 227 231 237 244 244 243 246 254 259 262 264 265 263 261 260 256 252 250 249 250 250 247
268 250 252 259 261 260 258 254 252 252 249 247 246 245 244 243 242 241 238 235 235 237 239 243 246 246 245 248 254 260 267 271 268 264 264 263 261 257 254 253 253 250
Height
1532 1533 1535 1536 1537 1538 1539 1540 1541 1541 1541 1541 1541 1541 1541 1541 1542 1542 1543 1543 1544 1545 1546 1547 1548 1548 1549 1549 1549 1550 1550 1551 1551 1552 1553 1553 1553 1554 1554 1555 1556 1558
1532 1534 1535 1536 1538 1539 1540 1541 1542 1542 1542 1542 1542 1542 1542 1542 1542 1542 1543 1544 1544 1545 1546 1546 1547 1548 1548 1549 1549 1550 1550 1551 1552 1552 1553 1554 1554 1554 1555 1556 1557 1558
1533 1534 1535 1536 1538 1539 1540 1541 1542 1542 1542 1542 1542 1542 1542 1542 1543 1543 1544 1545 1545 1545 1546 1546 1547 1548 1548 1549 1550 1550 1551 1552 1552 1553 1554 1555 1555 1556 1556 1557 1558 1559
1532 1534 1535 1537 1538 1539 1540 1542 1542 1543 1543 1543 1543 1543 1543 1543 1543 1544 1544 1545 1545 1546 1546 1547 1548 1548 1549 1549 1550 1551 1552 1552 1553 1554 1555 1556 1556 1557 1558 1558 1559 1560
1532 1534 1535 1537 1538 1539 1541 1542 1543 1543 1543 1543 1543 1544 1544 1544 1544 1544 1545 1545 1546 1546 1547 1547 1548 1549 1549 1550 1551 1551 1552 1553 1554 1555 1556 1557 1557 1558 1559 1560 1561 1561
1532 1534 1536 1538 1539 1540 1541 1542 1543 1544 1544 1544 1544 1544 1545 1545 1545 1545 1545 1546 1546 1546 1547 1548 1549 1550 1550 1551 1551 1552 1552 1553 1554 1555 1556 1557 1558 1559 1560 1560 1561 1562
1533 1535 1536 1538 1540 1541 1542 1543 1544 1544 1544 1545 1545 1545 1545 1545 1545 1546 1546 1546 1546 1547 1547 1548 1549 1550 1551 1551 1551 1552 1553 1553 1554 1555 1556 1557 1558 1559 1559 1560 1561 1562
1533 1535 1537 1539 1540 1541 1543 1543 1544 1544 1544 1545 1545 1545 1546 1546 1546 1546 1546 1546 1547 1547 1548 1548 1549 1550 1551 1551 1552 1552 1553 1553 1554 1555 1556 1557 1558 1559 1559 1560 1561 1562
1533 1534 1536 1538 1540 1541 1542 1543 1543 1544 1544 1545 1545 1545 1546 1546 1547 1547 1546 1547 1547 1548 1548 1548 1549 1550 1550 1551 1551 1552 1552 1553 1554 1555 1556 1557 1558 1558 1559 1559 1560 1562
1533 1534 1535 1537 1539 1540 1541 1542 1543 1543 1544 1545 1545 1545 1546 1546 1547 1547 1547 1547 1547 1548 1548 1549 1549 1550 1550 1551 1551 1552 1552 1553 1554 1555 1556 1557 1557 1558 1559 1559 1560 1561
1533 1534 1535 1536 1537 1538 1539 1541 1542 1543 1543 1544 1544 1545 1546 1546 1547 1547 1547 1548 1548 1548 1549 1549 1549 1550 1550 1551 1551 1552 1553 1553 1554 1555 1556 1557 1557 1558 1559 1559 1560 1561
1532 1535 1536 1537 1537 1537 1538 1539 1540 1541 1542 1543 1544 1544 1545 1546 1547 1547 1548 1548 1549 1549 1549 1550 1550 1551 1551 1552 1552 1553 1553 1554 1555 1555 1556 1557 1558 1558 1559 1559 1560 1561
1531 1533 1535 1536 1537 1538 1538 1539 1540 1541 1542 1542 1543 1544 1545 1546 1547 1547 1548 1549 1549 1550 1550 1551 1551 1552 1552 1553 1553 1553 1554 1555 1555 1556 1556 1557 1558 1559 1559 1560 1560 1561
1529 1531 1532 1534 1535 1536 1539 1540 1541 1542 1542 1543 1543 1544 1545 1546 1547 1547 1548 1549 1550 1550 1551 1551 1552 1552 1553 1553 1553 1554 1555 1555 1556 1556 1557 1557 1558 1559 1559 1560 1560 1561
1527 1529 1530 1532 1532 1534 1538 1541 1542 1543 1543 1543 1544 1544 1545 1546 1546 1547 1547 1548 1549 1550 1550 1551 1551 1552 1552 1553 1553 1554 1555 1555 1556 1556 1557 1557 1557 1558 1558 1559 1559 1560
1527 1528 1529 1531 1531 1532 1536 1539 1541 1543 1543 1543 1543 1544 1544 1545 1546 1546 1547 1548 1548 1549 1550 1550 1550 1551 1552 1552 1553 1553 1554 1555 1555 1556 1556 1556 1557 1557 1557 1558 1558 1559
1528 1528 1529 1530 1531 1533 1535 1537 1539 1541 1542 1543 1543 1543 1543 1544 1545 1546 1546 1547 1548 1548 1549 1549 1549 1550 1551 1551 1552 1553 1553 1554 1554 1555 1555 1555 1555 1555 1555 1556 1557 1558
1527 1529 1530 1530 1532 1533 1535 1536 1538 1539 1540 1540 1541 1543 1543 1544 1544 1545 1546 1547 1547 1548 1548 1548 1549 1549 1550 1550 1551 1551 1552 1553 1553 1553 1553 1553 1554 1553 1554 1554 1555 1555
1526 1528 1529 1530 1532 1533 1534 1535 1536 1537 1538 1538 1539 1541 1543 1543 1544 1544 1545 1546 1546 1547 1548 1548 1548 1549 1549 1549 1549 1550 1550 1551 1551 1552 1552 1552 1552 1552 1553 1553 1553 1554
1525 1526 1528 1530 1531 1532 1533 1534 1534 1535 1536 1536 1538 1540 1542 1542 1543 1543 1544 1544 1545 1546 1546 1546 1547 1547 1548 1548 1548 1548 1548 1549 1549 1549 1550 1550 1550 1551 1551 1552 1552 1552
1525 1526 1528 1529 1530 1531 1532 1532 1533 1533 1534 1536 1538 1539 1540 1540 1540 1541 1541 1541 1543 1544 1544 1544 1545 1545 1545 1546 1546 1546 1546 1546 1546 1546 1547 1547 1547 1548 1549 1549 1550 1550
1526 1527 1528 1529 1529 1530 1531 1531 1532 1533 1534 1535 1536 1537 1537 1538 1538 1538 1539 1539 1541 1542 1542 1542 1542 1542 1543 1543 1544 1544 1544 1544 1544 1544 1544 1544 1544 1545 1545 1546 1547 1547
1527 1527 1528 1529 1529 1530 1530 1530 1531 1532 1533 1534 1534 1535 1535 1535 1535 1535 1536 1536 1537 1538 1539 1539 1539 1540 1541 1541 1541 1541 1541 1541 1541 1541 1541 1541 1541 1541 1541 1542 1543 1543
1527 1527 1528 1529 1529 1530 1530 1530 1531 1531 1532 1532 1532 1533 1533 1533 1533 1533 1533 1533 1534 1535 1535 1535 1536 1537 1538 1538 1538 1538 1537 1537 1537 1537 1536 1537 1537 1537 1538 1538 1539 1539
1526 1526 1527 1528 1528 1529 1529 1529 1529 1530 1530 1531 1531 1531 1531 1531 1531 1531 1531 1532 1531 1532 1532 1532 1532 1533 1533 1534 1534 1534 1534 1534 1534 1533 1532 1533 1533 1534 1534 1535 1534 1534
1525 1526 1526 1526 1527 1527 1527 1527 1527 1528 1528 1528 1529 1529 1529 1529 1529 1529 1529 1529 1529 1529 1529 1529 1529 1529 1529 1530 1530 1530 1530 1531 1530 1530 1529 1529 1529 1530 1530 1530 1529 1529